#timestamp,LO_Frequency,Hit,StdDev 
1503417615.9,286047000.1,N,1.2
1503417635.7,286047000.1,N,1.1
1503417655.5,286047000.3,N,1.1
1503417675.4,286047000.9,N,1.0
1503417695.2,286046999.9,N,1.0
1503417715.0,286047000.1,N,0.9
1503417716.0,286047000.1,N,0.9
1503417735.8,286046999.7,N,0.9
1503417755.6,286047000.1,N,0.9
1503417775.5,286046998.6,N,0.9
1503417795.3,286046999.7,N,0.9
1503417815.1,286047000.6,N,0.9
1503417835.9,286046999.9,N,0.9
1503417855.7,286047002.4,N,1.0
1503417875.6,286046999.8,N,1.0
1503417895.4,286047001.1,N,1.0
1503417915.2,286047000.1,N,0.9
1503417935.1,286047001.1,N,0.9
1503417936.0,286047001.1,N,0.9
1503417955.8,286047001.1,N,0.9
1503417975.7,286046998.1,N,1.0
1503417995.5,286047001.0,N,1.0
1503418015.3,286046999.8,N,1.0
1503418035.2,286047002.3,N,1.0
1503418055.9,286047001.0,N,1.0
1503418075.7,286046999.9,N,0.9
1503418095.6,286047000.9,N,0.9
1503418115.4,286046998.6,N,1.0
1503418135.3,286047001.2,N,0.9
1503418155.1,286046998.1,N,1.0
1503418156.0,286046998.1,N,1.1
1503418175.8,286047000.9,N,1.1
1503418195.7,286047001.1,N,1.1
1503418215.5,286046998.6,N,1.1
1503418235.3,286046998.5,N,1.2
1503418255.2,286046999.4,N,1.2
1503418275.0,286046999.4,N,1.2
1503418275.9,286046999.4,N,1.2
1503418295.8,286046999.5,N,1.2
1503418315.6,286046999.4,N,1.2
1503418335.5,286047001.2,N,1.2
1503418355.3,286046999.0,N,1.2
1503418375.1,286046999.4,N,1.2
1503418395.9,286046999.6,N,1.1
1503418415.7,286046996.6,Y,0.0
1503418435.6,286046996.5,P,1.7
1503418455.4,286046996.9,N,1.5
1503418475.2,286046996.7,N,1.4
1503418495.1,286046997.4,N,1.3
1503418496.0,286046997.4,N,1.2
1503418515.8,286046996.9,N,1.1
1503418535.7,286046996.7,Y,0.0
1503418555.5,286046998.5,P,0.6
1503418575.3,286046998.3,P,0.5
1503418595.2,286046999.3,N,0.7
1503418615.0,286046998.8,N,0.6
1503418615.9,286046998.8,N,0.6
1503418635.8,286047000.5,N,0.9
1503418655.6,286046998.2,N,0.8
1503418675.4,286046998.6,N,0.8
1503418695.3,286046998.8,N,0.8
1503418715.1,286046998.4,N,0.7
1503418735.8,286046999.1,N,0.7
1503418755.7,286046999.0,N,0.7
1503418775.5,286046999.4,N,0.7
1503418795.4,286046999.3,N,0.7
1503418815.2,286046999.3,N,0.7
1503418835.0,286046997.0,Y,0.0
1503418835.9,286046997.0,P,0.9
1503418855.8,286046998.6,N,0.8
1503418875.6,286046997.0,P,0.9
1503418895.5,286046996.5,Y,0.0
1503418915.3,286046999.7,P,0.9
1503418935.1,286047002.7,N,2.0
1503418955.9,286047002.3,N,2.0
1503418975.7,286047000.1,N,1.8
1503418995.6,286047000.7,N,1.6
1503419015.4,286047000.0,N,1.5
1503419035.2,286047002.1,N,1.5
1503419055.1,286047002.8,N,1.6
1503419056.0,286047002.8,N,1.6
1503419075.8,286046999.8,N,1.6
1503419095.6,286046999.8,N,1.5
1503419115.5,286046999.7,N,1.5
1503419135.3,286047000.3,N,1.5
1503419155.2,286046999.9,N,1.4
1503419175.9,286046999.9,N,1.4
1503419195.7,286047000.3,N,1.4
1503419215.6,286047000.5,N,1.3
1503419235.4,286047000.9,N,1.3
1503419255.3,286047001.2,N,1.3
1503419275.1,286046998.3,N,1.3
1503419276.0,286046998.3,N,1.4
1503419295.8,286046998.7,N,1.4
1503419315.7,286047001.0,N,1.4
1503419335.5,286047000.2,N,1.3
1503419355.3,286047000.6,N,1.3
1503419375.2,286046998.9,N,1.3
1503419395.0,286046998.5,N,1.3
1503419395.9,286046998.5,N,1.4
1503419415.8,286046998.3,N,1.4
1503419435.6,286046998.9,N,1.3
1503419455.4,286047001.2,N,1.3
1503419475.3,286046998.7,N,1.3
1503419495.1,286046999.0,N,1.2
1503419515.9,286046999.0,N,1.3
1503419535.7,286046998.6,N,1.3
1503419555.5,286046999.0,N,1.3
1503419575.4,286046999.3,N,1.2
1503419595.2,286046998.9,N,1.1
1503419615.1,286046999.1,N,0.9
1503419616.0,286046999.1,N,0.9
1503419635.8,286046998.8,N,0.9
1503419655.6,286046999.3,N,0.9
1503419675.5,286046997.2,Y,0.0
1503419695.3,286046999.5,P,0.0
1503419715.2,286046997.6,P,0.9
1503419735.0,286046995.2,P,1.8
1503419735.9,286046995.2,N,1.9
1503419755.7,286046998.0,N,1.8
1503419775.6,286046997.4,N,1.6
1503419795.4,286046997.2,N,1.5
1503419815.3,286046997.6,N,1.4
1503419835.1,286046995.5,Y,0.0
1503419855.8,286046998.3,P,0.4
1503419875.7,286047000.7,N,1.4
1503419895.5,286046998.7,N,1.2
1503419915.4,286046998.5,N,1.1
1503419935.2,286047000.4,N,1.2
1503419955.0,286047002.8,N,1.7
1503419955.9,286047002.8,N,1.9
1503419975.8,286047002.4,N,2.0
1503419995.6,286047002.6,N,2.0
1503420015.5,286047001.9,N,2.0
1503420035.3,286047001.5,N,1.9
1503420055.1,286047002.6,N,1.9
1503420075.9,286047001.9,N,1.8
1503420095.7,286047001.6,N,1.8
1503420115.5,286047001.9,N,1.7
1503420135.4,286047000.0,N,1.7
1503420155.2,286047000.9,N,1.7
1503420175.1,286046998.1,N,1.7
1503420176.0,286046998.1,N,1.8
1503420195.8,286046998.2,N,1.8
1503420215.6,286046998.9,N,1.8
1503420235.5,286046998.6,N,1.8
1503420255.3,286046998.1,N,1.8
1503420275.2,286046998.5,N,1.8
1503420295.9,286046998.3,N,1.8
1503420315.7,286046998.7,N,1.8
1503420335.6,286046998.2,N,1.8
1503420355.4,286047000.9,N,1.8
1503420375.3,286046999.9,N,1.8
1503420395.1,286047000.1,N,1.7
1503420396.0,286047000.1,N,1.7
1503420415.8,286047002.0,N,1.7
1503420435.7,286047001.6,N,1.7
1503420455.5,286047002.1,N,1.7
1503420475.3,286047001.8,N,1.7
1503420495.2,286047001.5,N,1.7
1503420515.0,286047002.3,N,1.6
1503420515.9,286047002.3,N,1.6
1503420535.8,286047001.9,N,1.6
1503420555.6,286047002.1,N,1.6
1503420575.4,286047004.4,N,1.7
1503420595.3,286047002.2,N,1.7
1503420615.1,286047002.1,N,1.7
1503420635.9,286047002.7,N,1.8
1503420655.7,286047002.1,N,1.8
1503420675.5,286047003.9,N,1.9
1503420695.4,286047003.5,N,1.9
1503420715.2,286047004.1,N,2.0
1503420735.0,286047001.3,N,1.9
1503420736.0,286047001.3,N,1.8
1503420755.8,286047001.8,N,1.8
1503420775.6,286047004.3,N,1.8
1503420795.5,286047003.8,N,1.7
1503420815.3,286047003.6,N,1.6
1503420835.1,286047003.4,N,1.5
1503420855.9,286047003.5,N,1.4
1503420875.7,286047003.1,N,1.2
1503420895.6,286047004.2,Y,0.0
1503420915.4,286047002.5,P,0.1
1503420935.2,286047001.8,P,0.3
1503420955.1,286047004.4,P,1.0
1503420956.0,286047004.4,Y,0.0
1503420975.8,286047001.0,P,0.9
1503420995.7,286046999.9,N,1.2
1503421015.5,286047002.6,N,1.2
1503421035.3,286047000.1,N,1.2
1503421055.2,286046999.8,N,1.2
1503421075.0,286046999.8,N,1.2
1503421075.9,286046999.8,N,1.2
1503421095.7,286046999.9,N,1.2
1503421115.6,286047000.5,N,1.1
1503421135.4,286047000.4,N,1.0
1503421155.3,286046999.9,N,1.0
1503421175.1,286047000.0,N,1.0
1503421195.8,286047000.2,N,1.0
